TimeEDT,TemperatureF,Dew PointF,Humidity,Sea Level PressureIn,VisibilityMPH,Wind Direction,Wind SpeedMPH,Gust SpeedMPH,PrecipitationIn,Events,Conditions,WindDirDegrees,DateUTC
12:15 AM,46.9,34.7,62,30.02,10.0,Calm,Calm,-,N/A,,Clear,0,2013-10-24 04:15:00
12:35 AM,46.4,34.7,64,30.02,10.0,Calm,Calm,-,N/A,,Clear,0,2013-10-24 04:35:00
12:55 AM,46.0,34.7,65,30.02,10.0,NNW,3.5,-,N/A,,Clear,330,2013-10-24 04:55:00
1:15 AM,45.7,34.7,65,30.02,10.0,Calm,Calm,-,N/A,,Clear,0,2013-10-24 05:15:00
1:35 AM,44.6,35.2,70,30.03,10.0,Calm,Calm,-,N/A,,Clear,0,2013-10-24 05:35:00
1:55 AM,44.2,35.6,72,30.04,10.0,Calm,Calm,-,N/A,,Clear,0,2013-10-24 05:55:00
2:15 AM,43.9,35.6,73,30.04,10.0,Calm,Calm,-,N/A,,Clear,0,2013-10-24 06:15:00
2:35 AM,43.0,35.6,75,30.05,10.0,Calm,Calm,-,N/A,,Clear,0,2013-10-24 06:35:00
2:55 AM,42.1,35.6,78,30.06,10.0,Calm,Calm,-,N/A,,Clear,0,2013-10-24 06:55:00
3:15 AM,42.1,35.6,78,30.06,10.0,Calm,Calm,-,N/A,,Clear,0,2013-10-24 07:15:00
3:35 AM,41.9,35.6,78,30.07,10.0,Calm,Calm,-,N/A,,Clear,0,2013-10-24 07:35:00
3:55 AM,41.4,35.2,79,30.07,10.0,Calm,Calm,-,N/A,,Clear,0,2013-10-24 07:55:00
4:15 AM,41.9,34.7,76,30.08,10.0,Calm,Calm,-,N/A,,Clear,0,2013-10-24 08:15:00
4:35 AM,41.2,34.2,76,30.08,10.0,Calm,Calm,-,N/A,,Clear,0,2013-10-24 08:35:00
4:55 AM,41.0,33.8,76,30.08,10.0,Calm,Calm,-,N/A,,Clear,0,2013-10-24 08:55:00
5:15 AM,40.8,33.3,74,30.08,10.0,Calm,Calm,-,N/A,,Clear,0,2013-10-24 09:15:00
5:35 AM,40.1,33.4,77,30.10,10.0,Calm,Calm,-,N/A,,Clear,0,2013-10-24 09:35:00
5:55 AM,39.9,33.8,79,30.10,10.0,Calm,Calm,-,N/A,,Clear,0,2013-10-24 09:55:00
6:15 AM,39.2,33.6,80,30.10,10.0,Calm,Calm,-,N/A,,Clear,0,2013-10-24 10:15:00
6:35 AM,39.2,33.4,80,30.11,10.0,Calm,Calm,-,N/A,,Clear,0,2013-10-24 10:35:00
6:55 AM,38.7,33.6,82,30.11,10.0,Calm,Calm,-,N/A,,Clear,0,2013-10-24 10:55:00
7:15 AM,38.8,33.4,81,30.12,10.0,Calm,Calm,-,N/A,,Clear,0,2013-10-24 11:15:00
7:35 AM,38.3,33.6,83,30.13,10.0,Calm,Calm,-,N/A,,Clear,0,2013-10-24 11:35:00
7:55 AM,38.7,34.3,84,30.14,10.0,Calm,Calm,-,N/A,,Clear,0,2013-10-24 11:55:00
8:15 AM,40.1,34.7,81,30.14,10.0,Calm,Calm,-,N/A,,Clear,0,2013-10-24 12:15:00
8:35 AM,41.5,34.7,77,30.15,10.0,Calm,Calm,-,N/A,,Clear,0,2013-10-24 12:35:00
8:55 AM,43.3,34.9,72,30.16,10.0,Calm,Calm,-,N/A,,Clear,0,2013-10-24 12:55:00
9:15 AM,45.7,35.1,66,30.16,10.0,Calm,Calm,-,N/A,,Clear,0,2013-10-24 13:15:00
9:35 AM,47.5,33.4,58,30.16,10.0,NNW,4.6,-,N/A,,Clear,330,2013-10-24 13:35:00
9:55 AM,49.5,32.7,53,30.17,10.0,NW,4.6,-,N/A,,Clear,320,2013-10-24 13:55:00
10:15 AM,50.7,32.4,49,30.17,10.0,NW,4.6,-,N/A,,Clear,310,2013-10-24 14:15:00
10:35 AM,51.8,31.5,46,30.18,10.0,NNW,3.5,-,N/A,,Clear,340,2013-10-24 14:35:00
10:55 AM,51.8,30.9,45,30.18,10.0,West,4.6,-,N/A,,Clear,270,2013-10-24 14:55:00
11:15 AM,52.2,29.3,41,30.18,10.0,WNW,3.5,-,N/A,,Clear,300,2013-10-24 15:15:00
11:35 AM,54.3,30.6,40,30.16,10.0,WSW,3.5,-,N/A,,Clear,240,2013-10-24 15:35:00
11:55 AM,54.5,29.1,38,30.15,10.0,West,3.5,-,N/A,,Clear,270,2013-10-24 15:55:00
12:15 PM,54.5,29.3,38,30.15,10.0,WSW,3.5,-,N/A,,Clear,250,2013-10-24 16:15:00
12:35 PM,55.4,29.1,37,30.14,10.0,Calm,Calm,-,N/A,,Clear,0,2013-10-24 16:35:00
12:55 PM,57.2,30.2,36,30.12,10.0,WSW,6.9,-,N/A,,Clear,250,2013-10-24 16:55:00
1:15 PM,57.4,29.7,35,30.12,10.0,WNW,5.8,-,N/A,,Clear,300,2013-10-24 17:15:00
1:35 PM,58.1,30.6,35,30.11,10.0,WSW,6.9,-,N/A,,Clear,250,2013-10-24 17:35:00
1:55 PM,58.3,30.7,35,30.10,10.0,West,6.9,-,N/A,,Clear,260,2013-10-24 17:55:00
2:15 PM,58.5,30.6,35,30.10,10.0,West,5.8,-,N/A,,Clear,260,2013-10-24 18:15:00
2:35 PM,59.0,30.9,35,30.09,10.0,Calm,Calm,-,N/A,,Clear,0,2013-10-24 18:35:00
2:55 PM,59.4,30.9,34,30.08,10.0,West,6.9,-,N/A,,Clear,280,2013-10-24 18:55:00
3:15 PM,59.7,31.1,34,30.09,10.0,WNW,8.1,-,N/A,,Clear,300,2013-10-24 19:15:00
3:35 PM,59.9,31.8,35,30.09,10.0,NW,5.8,-,N/A,,Clear,320,2013-10-24 19:35:00
3:55 PM,60.1,32.0,35,30.09,10.0,NW,3.5,-,N/A,,Scattered Clouds,310,2013-10-24 19:55:00
4:15 PM,59.5,32.4,36,30.09,10.0,NW,3.5,-,N/A,,Scattered Clouds,310,2013-10-24 20:15:00
4:35 PM,59.5,32.2,36,30.09,7.0,WNW,3.5,-,N/A,,Mostly Cloudy,290,2013-10-24 20:35:00
4:55 PM,59.7,32.7,36,30.09,10.0,NW,4.6,-,N/A,,Mostly Cloudy,320,2013-10-24 20:55:00
5:15 PM,59.5,32.4,36,30.10,7.0,WNW,3.5,-,N/A,,Mostly Cloudy,290,2013-10-24 21:15:00
5:35 PM,58.3,33.4,39,30.10,10.0,Calm,Calm,-,N/A,,Mostly Cloudy,0,2013-10-24 21:35:00
5:55 PM,56.8,35.6,45,30.10,10.0,Calm,Calm,-,N/A,,Mostly Cloudy,0,2013-10-24 21:55:00
6:15 PM,55.4,37.0,50,30.11,10.0,Calm,Calm,-,N/A,,Scattered Clouds,0,2013-10-24 22:15:00
6:35 PM,53.8,37.9,55,30.11,10.0,Calm,Calm,-,N/A,,Clear,0,2013-10-24 22:35:00
6:55 PM,52.7,37.8,57,30.12,10.0,Calm,Calm,-,N/A,,Clear,0,2013-10-24 22:55:00
7:15 PM,51.1,39.0,63,30.13,10.0,Calm,Calm,-,N/A,,Clear,0,2013-10-24 23:15:00
7:35 PM,50.0,40.3,69,30.13,10.0,Calm,Calm,-,N/A,,Clear,0,2013-10-24 23:35:00
7:55 PM,47.7,40.8,77,30.14,10.0,Calm,Calm,-,N/A,,Clear,0,2013-10-24 23:55:00
8:15 PM,46.4,41.2,82,30.14,10.0,Calm,Calm,-,N/A,,Clear,0,2013-10-25 00:15:00
8:35 PM,46.6,40.5,79,30.15,10.0,Calm,Calm,-,N/A,,Clear,0,2013-10-25 00:35:00
8:55 PM,45.1,40.5,84,30.15,10.0,Calm,Calm,-,N/A,,Clear,0,2013-10-25 00:55:00
9:15 PM,44.4,40.6,87,30.16,10.0,Calm,Calm,-,N/A,,Scattered Clouds,0,2013-10-25 01:15:00
9:35 PM,44.1,42.4,94,30.16,10.0,Calm,Calm,-,N/A,,Mostly Cloudy,0,2013-10-25 01:35:00
9:55 PM,45.3,43.3,93,30.17,10.0,Calm,Calm,-,N/A,,Overcast,0,2013-10-25 01:55:00
10:15 PM,46.4,43.2,88,30.18,10.0,Calm,Calm,-,N/A,,Overcast,0,2013-10-25 02:15:00
10:35 PM,48.4,40.5,74,30.18,10.0,North,3.5,-,N/A,,Overcast,10,2013-10-25 02:35:00
10:55 PM,49.5,38.3,65,30.18,10.0,North,4.6,-,N/A,,Overcast,10,2013-10-25 02:55:00
11:15 PM,49.5,37.6,64,30.18,10.0,Calm,Calm,-,N/A,,Overcast,0,2013-10-25 03:15:00
11:35 PM,49.1,38.7,67,30.19,10.0,Calm,Calm,-,N/A,,Overcast,0,2013-10-25 03:35:00
11:55 PM,49.3,37.4,64,30.19,10.0,NNE,3.5,-,N/A,,Overcast,30,2013-10-25 03:55:00